Wind_Speed
6 4 5 6 7 8 9 9 6 5 6 8 9 8 10 11 12 13 12 12 11 12 12 11 12 13 14 14 14 9 9 12 12 6 7 6 6 8 7 11 13 14 16
8 7 6 7 7 8 9 10 9 7 6 8 8 8 9 11 12 13 14 14 14 14 14 13 13 13 12 14 14 14 8 9 15 7 6 1 7 8 8 10 12 14 13
11 9 8 7 7 9 10 11 10 8 7 9 11 11 11 10 11 13 15 16 16 16 16 16 15 14 14 14 15 15 14 9 9 13 7 2 2 11 5 5 8 12 14
11 12 10 9 9 10 11 11 11 10 9 9 10 11 10 8 9 12 13 17 17 18 18 17 17 15 14 15 14 14 13 12 12 4 11 10 6 3 3 1 14 12 13
14 12 12 10 10 10 11 10 11 13 12 12 12 14 15 13 11 12 13 15 17 18 18 18 17 16 16 15 15 15 15 15 12 12 10 6 8 10 4 4 13 14 15
15 16 14 12 12 11 11 11 12 14 14 15 15 15 15 13 13 12 12 13 15 17 18 16 16 16 15 16 15 14 16 15 14 12 12 12 7 8 6 3 10 12 9
16 15 16 14 13 13 12 11 12 14 13 14 15 15 14 14 13 13 13 12 13 13 15 15 15 15 14 14 13 14 14 14 14 13 10 10 9 7 6 5 7 6 9
15 14 16 15 14 13 12 12 12 13 13 13 14 13 13 12 12 13 12 11 11 11 12 12 13 13 13 12 12 12 12 11 11 12 11 8 8 8 7 6 8 5 5
16 15 17 16 15 13 13 12 13 12 12 12 12 13 12 13 12 11 11 10 10 10 11 11 11 11 11 11 9 10 10 9 9 9 9 8 7 7 7 6 6 6 3
16 15 17 16 14 13 13 12 12 12 11 11 11 11 11 11 11 10 10 10 9 9 9 10 10 10 10 10 9 8 9 8 8 7 8 7 7 6 6 6 6 6 8
16 15 18 16 15 13 12 12 11 11 10 10 10 9 10 10 9 9 8 8 8 8 9 9 9 9 9 9 9 8 9 8 8 8 8 7 8 7 7 7 7 8 9
17 19 19 17 16 14 13 11 10 10 9 8 8 8 7 7 7 7 7 7 7 7 8 8 8 8 8 8 8 8 8 8 8 8 8 8 9 9 8 8 9 10 11
17 18 18 17 16 14 12 11 9 9 8 8 7 6 5 4 4 5 5 5 6 6 7 7 8 8 8 7 5 6 7 7 7 8 8 9 9 9 8 10 11 11 12
16 14 15 16 14 13 12 11 9 8 7 6 5 4 3 2 2 2 3 4 5 5 7 7 8 8 8 7 5 6 7 8 9 9 9 10 10 10 11 11 11 11 13
15 13 13 16 14 12 11 10 9 7 5 4 3 1 1 1 1 2 3 4 5 7 8 9 9 10 10 7 8 9 10 11 13 12 12 12 12 14 14 13 13 13 14
15 14 17 16 14 12 10 9 8 6 4 2 1 1 1 2 3 4 5 7 8 9 10 11 12 12 12 10 10 11 12 13 15 16 16 18 16 15 14 14 16 15 17
14 13 17 15 13 11 10 9 7 5 3 2 2 2 2 3 5 6 8 9 10 11 12 13 14 15 16 14 13 13 14 16 17 18 19 19 15 15 18 18 16 17 17
14 17 17 15 13 12 9 8 6 3 2 2 3 4 4 6 6 8 9 10 10 11 12 14 15 16 18 14 15 16 17 17 18 19 21 20 21 21 19 20 20 20 19
19 18 16 14 12 10 8 6 4 2 2 3 4 5 6 7 8 9 10 10 11 12 14 15 16 17 19 17 18 18 18 19 20 21 21 22 23 21 19 21 24 26 24
20 19 15 13 10 8 6 5 2 1 3 4 5 5 6 7 9 10 11 12 13 15 15 16 17 18 21 21 20 20 20 21 22 21 21 21 23 22 22 24 25 25 20
19 16 13 11 9 8 6 3 0 2 3 4 5 6 7 9 10 11 12 13 15 16 17 19 19 20 21 22 22 21 22 23 23 22 22 22 22 22 23 25 25 23 25
16 12 11 10 8 6 4 2 2 2 3 5 6 7 8 9 11 12 14 14 15 17 18 19 19 18 19 19 20 21 22 24 26 27 26 26 27 28 28 28 27 28 28
15 11 10 10 7 5 4 1 1 3 5 6 7 8 9 10 10 12 13 14 14 16 17 17 18 19 19 19 20 21 22 23 25 26 27 29 30 32 33 32 32 29 24
13 11 10 9 8 5 3 1 2 4 5 6 8 9 10 10 10 10 11 12 13 14 16 17 19 21 22 22 22 23 25 25 25 26 27 27 27 28 31 32 30 26 17
12 10 8 8 6 5 4 4 4 4 5 5 6 7 8 9 11 10 11 13 14 16 19 20 21 22 23 22 26 29 29 28 28 30 31 29 27 24 23 23 22 21 21
11 10 9 8 7 6 5 5 6 5 6 7 7 8 9 10 11 13 15 15 16 17 19 21 22 23 24 26 27 27 28 29 29 29 26 24 21 25 26 25 25 26 20
Wind_Direction
139 107 84 72 62 57 53 49 63 74 108 113 95 85 70 67 67 64 66 64 59 58 53 44 41 44 41 33 29 28 28 27 13 358 342 96 102 47 67 74 65 58 53
158 142 122 99 81 70 61 58 60 77 93 106 110 107 96 76 74 62 63 64 61 58 55 52 42 43 37 34 34 35 28 39 30 5 309 137 137 48 84 74 66 51 46
167 155 142 121 99 77 62 58 64 70 89 110 110 105 97 88 68 61 61 61 63 60 60 54 53 46 44 37 33 31 32 20 27 37 15 334 359 337 128 97 63 40 28
168 156 150 125 103 84 74 65 68 76 81 98 110 116 101 87 68 63 61 62 62 61 60 56 52 50 47 42 37 36 37 40 31 41 33 48 37 359 321 57 59 31 19
173 161 145 128 110 97 86 78 76 75 79 88 97 99 97 90 83 73 66 61 58 57 54 54 51 50 48 44 42 42 44 45 47 43 23 29 50 30 351 310 348 354 353
166 155 144 135 118 107 96 90 82 76 79 81 85 86 90 86 80 70 63 55 52 48 50 46 46 45 44 41 40 41 43 45 47 49 48 48 41 22 15 336 339 327 327
162 156 154 143 131 120 110 99 91 82 79 80 80 79 80 79 74 69 65 59 53 45 39 41 42 42 42 42 41 43 43 42 45 43 43 46 45 30 12 349 330 306 318
165 162 153 143 133 126 118 110 101 93 85 82 79 76 76 76 72 68 66 63 57 47 40 40 41 40 41 41 42 45 44 42 43 41 41 41 33 28 22 8 344 320 304
162 155 148 142 136 128 118 113 106 99 91 87 84 78 75 74 70 66 65 60 53 44 38 37 36 34 35 36 39 38 38 38 38 35 32 32 22 13 7 360 349 340 320
159 153 149 143 135 128 120 114 108 102 96 89 84 81 77 76 72 69 64 59 55 46 40 36 33 31 29 32 34 32 26 30 26 22 19 16 3 354 344 334 322 305 292
158 155 150 143 136 129 123 116 110 105 96 91 88 85 79 74 73 69 63 58 48 48 42 39 33 30 29 29 28 24 18 18 13 11 5 359 351 342 332 322 313 302 294
157 154 150 145 140 133 128 121 115 106 99 96 93 87 83 76 70 64 57 53 49 45 41 39 37 31 28 28 23 15 7 3 0 355 352 347 342 337 328 321 312 303 299
155 150 149 146 140 134 129 123 116 113 111 108 101 94 83 78 69 62 59 52 47 39 32 25 21 18 13 9 8 357 346 341 335 332 332 330 329 323 319 316 309 306 304
152 149 144 139 136 134 134 133 129 128 120 113 109 101 84 74 72 62 45 32 20 11 4 358 354 350 350 346 342 330 322 317 315 310 309 311 311 306 306 307 303 304 306
152 151 146 144 141 138 139 138 136 134 127 114 105 92 72 47 11 348 335 335 338 338 335 333 331 330 331 332 319 322 317 305 305 299 295 298 295 295 289 290 292 299 300
155 149 142 141 141 142 144 141 142 140 141 135 147 209 256 283 300 310 312 313 315 318 318 319 317 318 317 314 300 299 299 296 292 291 292 292 294 289 285 283 282 279 283
148 145 141 140 137 139 143 144 149 156 162 171 221 256 279 291 298 300 300 302 304 304 304 309 310 309 309 308 299 297 292 287 287 284 286 287 283 278 275 280 282 277 272
138 134 132 129 130 138 139 148 153 164 188 228 261 277 286 292 294 293 295 300 299 297 298 299 301 301 301 295 293 294 292 287 284 280 282 281 283 280 280 284 284 286 280
131 125 125 132 140 140 148 150 155 178 253 282 288 283 285 293 300 299 299 296 293 291 289 288 289 288 291 291 292 293 291 287 283 281 278 275 275 279 277 274 274 276 274
122 127 133 136 138 146 148 141 147 341 313 300 295 294 290 291 292 294 294 293 289 289 290 290 289 289 288 290 289 287 284 282 282 283 280 276 273 273 273 271 270 270 267
124 130 133 134 136 137 138 129 90 280 292 299 299 297 296 296 296 296 296 297 296 294 292 293 292 290 288 289 289 287 283 280 282 282 281 280 279 276 274 272 270 266 277
123 129 126 127 132 130 125 153 237 291 311 310 310 312 310 306 302 300 300 299 297 295 294 293 293 293 294 293 293 290 287 284 279 278 278 277 279 277 275 275 275 274 275
128 127 119 112 115 130 156 168 14 328 322 320 317 314 311 309 306 304 303 302 302 302 303 303 302 303 303 301 299 297 293 290 286 283 280 279 277 276 276 275 274 274 278
116 116 116 121 124 122 115 66 354 342 329 326 326 325 321 319 317 314 309 306 305 306 306 303 298 294 293 292 293 289 286 283 281 277 276 278 277 276 275 271 267 268 261
120 121 119 113 102 83 66 43 22 2 349 336 330 329 327 324 320 316 311 307 302 298 294 295 297 302 301 296 295 294 292 286 273 273 263 263 266 270 271 265 256 257 261
122 113 101 93 77 67 51 29 16 8 360 353 350 339 333 329 324 318 312 311 308 308 306 304 303 302 302 305 305 304 303 301 298 295 294 293 284 268 261 256 260 262 254
Height
871 872 873 872 873 872 871 869 869 872 870 870 871 872 873 873 873 873 872 872 872 872 873 874 874 875 876 876 875 875 876 874 871 871 870 870 871 872 874 873 873 874 874
867 872 874 874 875 873 873 872 872 872 873 872 873 875 876 878 877 877 876 875 874 874 875 875 876 877 878 877 877 877 878 878 876 876 872 868 873 874 874 874 874 876 876
863 868 872 874 875 874 873 873 872 874 875 874 875 876 879 880 881 880 880 878 878 878 878 878 879 880 881 882 882 881 880 880 880 879 879 874 877 874 873 874 875 878 878
857 865 870 873 873 874 873 876 875 876 877 877 877 877 880 883 885 885 885 883 883 882 882 883 883 884 885 885 885 885 884 883 883 882 883 884 884 882 876 874 875 878 879
856 863 868 872 873 874 875 879 879 879 879 879 880 880 882 885 887 887 888 888 887 887 888 888 888 887 888 888 889 888 887 887 886 886 886 886 886 886 887 882 878 878 879
853 862 868 872 873 875 878 881 881 881 882 883 884 885 886 889 890 891 892 892 892 892 892 892 891 891 890 890 891 890 890 889 889 890 890 891 892 893 893 891 888 887 882
853 862 867 870 873 876 880 883 883 885 885 887 888 889 890 892 893 894 895 895 895 896 896 895 894 894 894 894 894 893 893 893 892 893 894 894 895 895 895 894 893 891 885
853 861 865 870 874 878 881 883 885 887 888 890 891 892 893 894 896 897 898 899 899 899 899 898 898 897 897 897 897 896 896 896 896 896 896 896 896 896 896 896 895 890 885
851 860 866 871 876 879 882 884 886 889 890 892 893 895 896 897 898 899 900 901 901 901 901 901 900 899 898 898 899 899 898 898 898 898 898 898 897 897 896 896 896 896 891
851 861 868 873 878 881 883 886 888 891 892 894 895 896 897 898 900 901 901 902 902 903 902 902 902 901 901 900 900 901 900 900 900 899 899 899 898 898 897 897 896 896 895
851 861 869 874 878 882 885 887 890 892 894 895 897 898 899 900 901 902 903 904 904 903 903 903 903 903 902 901 901 901 901 901 900 900 900 899 898 897 896 896 895 894 893
852 861 868 874 878 882 886 889 892 893 895 897 898 900 901 902 903 904 905 905 905 905 905 904 904 903 903 902 902 902 902 902 901 900 900 899 898 896 896 894 893 892 890
852 861 868 873 878 883 887 890 892 894 896 897 899 901 902 903 904 905 905 905 905 905 905 905 904 904 903 903 902 903 902 902 901 900 899 898 897 895 894 893 892 890 888
853 861 868 874 879 883 887 890 892 895 897 898 899 901 902 903 904 905 905 905 905 905 905 904 904 904 903 902 902 902 901 901 900 898 898 896 895 894 892 891 889 887 886
854 861 868 874 879 883 887 890 893 895 897 899 900 901 902 903 904 905 905 905 905 904 904 903 903 902 901 900 900 900 899 898 897 896 895 893 892 891 889 888 887 885 883
857 863 868 875 879 884 887 891 893 895 898 899 900 901 902 903 903 904 904 904 903 902 902 901 900 900 899 898 899 898 897 895 894 892 891 889 888 886 885 885 883 883 880
857 864 869 875 880 884 888 891 894 896 897 899 900 901 902 902 902 902 902 902 901 901 900 899 898 896 895 895 895 895 893 892 890 888 886 885 884 883 881 879 878 877 875
859 866 871 876 880 884 888 891 893 895 897 899 900 900 900 900 901 901 900 900 899 899 898 896 895 894 892 892 892 891 889 887 885 884 882 880 878 877 876 875 872 871 870
860 867 873 877 881 884 888 891 893 895 897 898 898 899 899 899 898 898 898 898 897 896 895 894 893 891 889 889 887 886 884 882 880 878 877 875 873 872 872 870 867 865 864
862 868 874 878 882 885 888 890 892 894 895 896 897 898 897 896 896 896 896 895 895 893 892 890 889 887 885 884 883 882 880 878 875 874 871 870 868 866 865 864 861 859 858
864 870 875 879 882 885 888 890 892 894 895 895 895 896 895 895 894 894 893 892 891 889 888 886 884 883 881 879 878 877 875 873 870 868 865 863 862 860 859 856 854 852 852
867 872 876 880 883 884 887 890 893 893 893 893 893 893 892 892 892 891 890 889 888 886 884 882 880 879 877 875 874 872 870 868 864 861 859 857 855 853 851 848 847 845 844
869 873 876 879 883 886 889 891 891 891 891 891 891 891 891 890 889 888 887 886 885 883 881 879 876 874 873 871 869 867 864 862 859 856 852 849 846 844 842 840 838 838 837
870 874 878 882 885 887 888 889 889 889 889 889 889 889 888 888 887 886 885 884 883 881 880 877 874 871 869 867 864 861 858 855 852 848 844 841 839 836 834 832 831 830 830
874 877 880 882 885 886 887 888 888 888 889 889 889 888 888 887 886 885 884 882 881 879 875 873 870 867 863 861 858 854 849 845 841 838 834 831 830 829 827 825 824 823 823
876 878 880 882 884 885 886 887 887 887 887 887 887 887 887 885 883 882 880 879 876 874 871 868 865 862 859 855 852 848 844 840 837 832 829 826 824 821 818 818 818 818 816